FW5428 Weather Reports


Display with metric or nautical units.
time (UTC)temp
F
wind
direction
speed
MPH
gust
MPH
rain 1hr
in
rain 24hr
in
rain mn
in
humidity
%
barometer
mb
20260506020922 70 0 1.0 5.0 0.00 0.01 0.52 95 1010.6
20260506020411 70 0 2.0 6.0 0.00 0.01 0.52 95 1010.7
20260506015901 70 90 2.0 6.0 0.00 0.01 0.52 95 1011.0
20260506015349 70 0 2.0 5.0 0.00 0.01 0.52 95 1010.9
20260506005656 69 90 2.0 8.0 0.01 0.01 0.52 95 1011.6
20260506004634 70 90 5.0 13.0 0.01 0.01 0.52 95 1011.3
20260506004124 70 135 9.0 12.0 0.01 0.01 0.52 95 1011.4
20260506003613 70 90 4.0 10.0 0.00 0.00 0.51 95 1011.5
20260506003104 70 90 4.0 8.0 0.00 0.00 0.51 95 1011.4
20260506002554 70 90 4.0 6.0 0.00 0.00 0.51 95 1011.5
20260506002044 70 90 0.0 5.0 0.00 0.00 0.51 95 1011.5
20260506001533 70 135 3.0 7.0 0.00 0.00 0.51 95 1011.2
20260505212941 70 135 15.0 22.0 0.27 0.27 0.51 93 1010.2
20260505212432 71 180 14.0 22.0 0.15 0.15 0.34 92 1009.7
20260505211305 71 135 12.0 21.0 0.05 0.05 0.05 91 1008.3
20260505210808 72 135 14.0 22.0 0.02 0.02 0.02 90 1009.2
20260505210245 73 135 16.0 23.0 0.00 0.00 0.00 89 1009.8
20260505205225 73 90 6.0 15.0 0.00 0.00 0.00 89 1009.4
20260505204715 74 135 11.0 16.0 0.00 0.00 0.00 88 1010.2
20260505204205 74 135 11.0 16.0 0.00 0.00 0.00 87 1009.8
20260505203655 74 135 6.0 12.0 0.00 0.00 0.00 87 1009.3
20260505203145 74 135 2.0 9.0 0.00 0.00 0.00 87 1009.3
20260505202124 74 315 3.0 11.0 0.00 0.00 0.00 87 1009.7
20260505201614 75 135 5.0 11.0 0.00 0.00 0.00 87 1009.2
20260505201104 75 90 7.0 10.0 0.00 0.00 0.00 86 1009.8
20260505200554 75 90 2.0 7.0 0.00 0.00 0.00 86 1009.9
20260505200052 75 90 4.0 7.0 0.00 0.00 0.00 86 1010.2
20260505195534 75 90 4.0 7.0 0.00 0.00 0.00 86 1009.8
20260505195024 76 90 2.0 6.0 0.00 0.00 0.00 85 1010.2
20260505194513 76 90 2.0 8.0 0.00 0.00 0.00 85 1010.0
20260505194003 76 90 2.0 8.0 0.00 0.00 0.00 85 1010.3
20260505193454 76 0 2.0 5.0 0.00 0.00 0.00 85 1010.3
20260505192943 76 135 2.0 7.0 0.00 0.00 0.00 85 1010.0
20260505192433 76 180 2.0 8.0 0.00 0.00 0.00 84 1010.0
20260505191923 76 180 2.0 9.0 0.00 0.00 0.00 84 1010.1
20260505191412 76 180 2.0 9.0 0.00 0.00 0.00 84 1009.9
20260505190354 77 225 3.0 6.0 0.00 0.00 0.00 83 1010.1
20260505185843 77 225 0.0 8.0 0.00 0.00 0.00 83 1010.2
20260505184822 77 180 4.0 13.0 0.00 0.00 0.00 82 1010.3
20260505184312 77 180 7.0 13.0 0.00 0.00 0.00 82 1010.3
20260505183252 77 270 4.0 10.0 0.00 0.00 0.00 81 1010.6
20260505182742 77 180 4.0 10.0 0.00 0.00 0.00 81 1010.3
20260505182232 78 90 4.0 11.0 0.00 0.00 0.00 81 1010.8
20260505181731 78 180 4.0 14.0 0.00 0.00 0.00 81 1010.7
20260505181211 78 135 5.0 14.0 0.00 0.00 0.00 81 1010.5
20260505180702 78 90 4.0 9.0 0.00 0.00 0.00 79 1010.5
20260505180152 77 135 5.0 13.0 0.00 0.00 0.00 80 1010.6
20260505175641 77 135 5.0 14.0 0.00 0.00 0.00 80 1010.5
20260505175131 77 180 8.0 14.0 0.00 0.00 0.00 80 1010.6
20260505174111 77 135 4.0 12.0 0.00 0.00 0.00 79 1010.7
20260505173601 78 225 2.0 12.0 0.00 0.00 0.00 80 1010.7
20260505172541 78 90 8.0 13.0 0.00 0.00 0.00 79 1010.8
20260505172030 78 180 4.0 13.0 0.00 0.00 0.00 79 1010.6
20260505171520 78 225 2.0 10.0 0.00 0.00 0.00 79 1010.7
20260505171010 78 135 2.0 10.0 0.00 0.00 0.00 80 1010.8
20260505170500 78 180 4.0 11.0 0.00 0.00 0.00 79 1010.7
20260505165950 77 270 4.0 11.0 0.00 0.00 0.00 79 1010.7
20260505165440 77 135 6.0 11.0 0.00 0.00 0.00 80 1011.0
20260505164930 77 180 6.0 9.0 0.00 0.00 0.00 81 1011.0
20260505164419 76 90 4.0 9.0 0.00 0.00 0.00 81 1011.1
20260505162849 76 135 7.0 13.0 0.00 0.00 0.00 82 1011.4
20260505162339 77 90 5.0 11.0 0.00 0.00 0.00 81 1011.5
20260505161318 76 90 2.0 11.0 0.00 0.00 0.00 81 1011.4
20260505160809 76 90 4.0 11.0 0.00 0.00 0.00 82 1011.8
20260505160259 76 135 3.0 8.0 0.00 0.00 0.00 80 1011.8
20260505152654 75 90 4.0 9.0 0.00 0.00 0.00 81 1012.2